Time,TemperatureF,DewpointF,PressureIn,WindDirection,WindDirectionDegrees,WindSpeedMPH,WindSpeedGustMPH,Humidity,HourlyPrecipIn,Conditions,Clouds,dailyrainin,SoftwareType,DateUTC
2013-03-15 00:00:00,49.3,45.3,29.84,North,0,0.0,0.0,86,0.00,,,0.00,WUHU216HW,2013-03-15 07:00:00,
2013-03-15 00:05:00,49.3,45.3,29.84,North,0,0.0,0.0,86,0.00,,,0.00,WUHU216HW,2013-03-15 07:05:00,
2013-03-15 00:10:00,49.3,45.3,29.84,North,0,0.0,0.0,86,0.00,,,0.00,WUHU216HW,2013-03-15 07:10:00,
2013-03-15 00:15:00,49.3,45.5,29.84,North,0,0.0,0.0,87,0.00,,,0.00,WUHU216HW,2013-03-15 07:15:00,
2013-03-15 00:20:00,49.3,45.5,29.84,North,0,0.0,0.0,87,0.00,,,0.00,WUHU216HW,2013-03-15 07:20:00,
2013-03-15 00:25:00,49.3,45.5,29.84,North,0,0.0,0.0,87,0.00,,,0.00,WUHU216HW,2013-03-15 07:25:00,
2013-03-15 00:30:00,49.3,45.5,29.84,North,0,0.0,0.0,87,0.00,,,0.00,WUHU216HW,2013-03-15 07:30:00,
2013-03-15 00:35:00,49.3,45.5,29.85,North,0,0.0,0.0,87,0.00,,,0.00,WUHU216HW,2013-03-15 07:35:00,
2013-03-15 00:40:00,49.3,45.5,29.85,North,0,0.0,0.0,87,0.00,,,0.00,WUHU216HW,2013-03-15 07:40:00,
2013-03-15 00:45:00,49.3,45.9,29.85,North,0,0.0,0.0,88,0.00,,,0.00,WUHU216HW,2013-03-15 07:45:00,
2013-03-15 00:50:00,49.3,45.9,29.85,North,0,0.0,0.0,88,0.00,,,0.00,WUHU216HW,2013-03-15 07:50:00,
2013-03-15 00:55:00,49.5,46.1,29.85,North,0,0.0,0.0,88,0.00,,,0.00,WUHU216HW,2013-03-15 07:55:00,
2013-03-15 01:00:00,49.5,46.1,29.85,North,0,0.0,0.0,88,0.00,,,0.00,WUHU216HW,2013-03-15 08:00:00,
2013-03-15 01:05:00,49.5,46.1,29.86,North,0,0.0,0.0,88,0.00,,,0.00,WUHU216HW,2013-03-15 08:05:00,
2013-03-15 01:10:00,49.5,46.1,29.86,North,0,0.0,0.0,88,0.00,,,0.00,WUHU216HW,2013-03-15 08:10:00,
2013-03-15 01:15:00,49.5,46.1,29.86,North,0,0.0,0.0,88,0.00,,,0.00,WUHU216HW,2013-03-15 08:15:00,
2013-03-15 01:20:00,49.7,46.3,29.86,North,0,0.0,0.0,88,0.00,,,0.00,WUHU216HW,2013-03-15 08:20:00,
2013-03-15 01:25:00,49.7,46.3,29.86,North,0,0.0,0.0,88,0.00,,,0.00,WUHU216HW,2013-03-15 08:25:00,
2013-03-15 01:30:00,49.7,46.3,29.86,North,0,0.0,0.0,88,0.00,,,0.00,WUHU216HW,2013-03-15 08:30:00,
2013-03-15 01:35:00,49.7,46.3,29.86,North,0,0.0,0.0,88,0.00,,,0.00,WUHU216HW,2013-03-15 08:35:00,
2013-03-15 01:40:00,49.7,46.3,29.86,North,0,0.0,0.0,88,0.00,,,0.00,WUHU216HW,2013-03-15 08:40:00,
2013-03-15 01:45:00,49.7,46.3,29.86,North,0,0.0,0.0,88,0.00,,,0.00,WUHU216HW,2013-03-15 08:45:00,
2013-03-15 01:50:00,49.9,46.4,29.86,North,0,0.0,0.0,88,0.00,,,0.00,WUHU216HW,2013-03-15 08:50:00,
2013-03-15 01:55:00,49.7,46.3,29.86,North,0,0.0,0.0,88,0.00,,,0.00,WUHU216HW,2013-03-15 08:55:00,
2013-03-15 02:00:00,49.9,46.4,29.86,North,0,0.0,0.0,88,0.00,,,0.00,WUHU216HW,2013-03-15 09:00:00,
2013-03-15 02:05:00,49.9,46.4,29.86,North,0,0.0,0.0,88,0.00,,,0.00,WUHU216HW,2013-03-15 09:05:00,
2013-03-15 02:10:00,49.9,46.4,29.86,North,0,0.0,0.0,88,0.00,,,0.00,WUHU216HW,2013-03-15 09:10:00,
2013-03-15 02:15:00,49.9,46.4,29.86,North,0,0.0,0.0,88,0.00,,,0.00,WUHU216HW,2013-03-15 09:15:00,
2013-03-15 02:20:00,49.9,46.4,29.87,North,0,0.0,0.0,88,0.00,,,0.00,WUHU216HW,2013-03-15 09:20:00,
2013-03-15 02:25:00,49.9,46.4,29.87,North,0,0.0,0.0,88,0.00,,,0.00,WUHU216HW,2013-03-15 09:25:00,
2013-03-15 02:30:00,49.9,46.4,29.87,North,0,0.0,0.0,88,0.00,,,0.00,WUHU216HW,2013-03-15 09:30:00,
2013-03-15 02:35:00,50.0,46.5,29.87,North,0,0.0,0.0,88,0.00,,,0.00,WUHU216HW,2013-03-15 09:35:00,
2013-03-15 02:40:00,50.0,46.5,29.87,North,0,0.0,0.0,88,0.00,,,0.00,WUHU216HW,2013-03-15 09:40:00,
2013-03-15 02:45:00,50.0,46.5,29.87,North,0,0.0,0.0,88,0.00,,,0.00,WUHU216HW,2013-03-15 09:45:00,
2013-03-15 02:50:00,50.0,46.5,29.87,North,0,0.0,0.0,88,0.00,,,0.00,WUHU216HW,2013-03-15 09:50:00,
2013-03-15 02:55:00,50.0,46.5,29.87,North,0,0.0,0.0,88,0.00,,,0.00,WUHU216HW,2013-03-15 09:55:00,
2013-03-15 03:00:00,50.0,46.5,29.87,North,0,0.0,0.0,88,0.00,,,0.00,WUHU216HW,2013-03-15 10:00:00,
2013-03-15 03:05:00,50.0,46.5,29.87,North,0,0.0,0.0,88,0.00,,,0.00,WUHU216HW,2013-03-15 10:05:00,
2013-03-15 03:10:00,50.0,46.5,29.87,North,0,0.0,0.0,88,0.00,,,0.00,WUHU216HW,2013-03-15 10:10:00,
2013-03-15 03:15:00,50.0,46.5,29.86,North,0,0.0,0.0,88,0.00,,,0.00,WUHU216HW,2013-03-15 10:15:00,
2013-03-15 03:20:00,50.0,46.5,29.86,North,0,0.0,0.0,88,0.00,,,0.00,WUHU216HW,2013-03-15 10:20:00,
2013-03-15 03:25:00,50.0,46.5,29.86,North,0,0.0,0.0,88,0.00,,,0.00,WUHU216HW,2013-03-15 10:25:00,
2013-03-15 03:30:00,50.0,46.5,29.86,North,0,0.0,0.0,88,0.00,,,0.00,WUHU216HW,2013-03-15 10:30:00,
2013-03-15 03:35:00,50.2,46.7,29.86,North,0,0.0,0.0,88,0.00,,,0.00,WUHU216HW,2013-03-15 10:35:00,
2013-03-15 03:40:00,50.2,46.7,29.86,North,0,0.0,0.0,88,0.00,,,0.00,WUHU216HW,2013-03-15 10:40:00,
2013-03-15 03:45:00,50.4,46.9,29.86,North,0,0.0,0.0,88,0.00,,,0.00,WUHU216HW,2013-03-15 10:45:00,
2013-03-15 03:50:00,50.4,46.9,29.86,North,0,0.0,0.0,88,0.00,,,0.00,WUHU216HW,2013-03-15 10:50:00,
2013-03-15 03:55:00,50.4,46.9,29.86,North,0,0.0,0.0,88,0.00,,,0.00,WUHU216HW,2013-03-15 10:55:00,
2013-03-15 04:00:00,50.4,46.9,29.86,North,0,0.0,0.0,88,0.00,,,0.00,WUHU216HW,2013-03-15 11:00:00,
2013-03-15 04:05:00,50.4,46.9,29.86,North,0,0.0,0.0,88,0.00,,,0.00,WUHU216HW,2013-03-15 11:05:00,
2013-03-15 04:10:00,50.4,46.9,29.86,North,0,0.0,0.0,88,0.00,,,0.00,WUHU216HW,2013-03-15 11:10:00,
2013-03-15 04:15:00,50.4,46.9,29.86,North,0,0.0,0.0,88,0.00,,,0.00,WUHU216HW,2013-03-15 11:15:00,
2013-03-15 04:20:00,50.4,46.9,29.86,North,0,0.0,0.0,88,0.00,,,0.00,WUHU216HW,2013-03-15 11:20:00,
2013-03-15 04:25:00,50.4,46.9,29.86,North,0,0.0,0.0,88,0.00,,,0.00,WUHU216HW,2013-03-15 11:25:00,
2013-03-15 04:30:00,50.4,46.9,29.86,North,0,0.0,0.0,88,0.00,,,0.00,WUHU216HW,2013-03-15 11:30:00,
2013-03-15 04:35:00,50.4,46.9,29.85,North,0,0.0,0.0,88,0.00,,,0.00,WUHU216HW,2013-03-15 11:35:00,
2013-03-15 04:40:00,50.4,46.9,29.85,North,0,0.0,0.0,88,0.00,,,0.00,WUHU216HW,2013-03-15 11:40:00,
2013-03-15 04:45:00,50.4,46.9,29.85,North,0,0.0,0.0,88,0.00,,,0.00,WUHU216HW,2013-03-15 11:45:00,
2013-03-15 04:50:00,50.4,46.9,29.85,North,0,0.0,0.0,88,0.00,,,0.00,WUHU216HW,2013-03-15 11:50:00,
2013-03-15 04:55:00,50.4,46.9,29.85,North,0,0.0,0.0,88,0.00,,,0.00,WUHU216HW,2013-03-15 11:55:00,
2013-03-15 05:00:00,50.4,46.9,29.85,North,0,0.0,0.0,88,0.00,,,0.00,WUHU216HW,2013-03-15 12:00:00,
2013-03-15 05:05:00,50.4,46.9,29.85,North,0,0.0,0.0,88,0.00,,,0.00,WUHU216HW,2013-03-15 12:05:00,
2013-03-15 05:10:00,50.4,46.9,29.85,North,0,0.0,0.0,88,0.00,,,0.00,WUHU216HW,2013-03-15 12:10:00,
2013-03-15 05:15:00,50.4,46.9,29.85,North,0,0.0,0.0,88,0.00,,,0.00,WUHU216HW,2013-03-15 12:15:00,
2013-03-15 05:20:00,50.4,46.9,29.85,North,0,0.0,0.0,88,0.00,,,0.00,WUHU216HW,2013-03-15 12:20:00,
2013-03-15 05:25:00,50.2,46.7,29.85,North,0,0.0,0.0,88,0.00,,,0.00,WUHU216HW,2013-03-15 12:25:00,
2013-03-15 05:30:00,50.2,47.1,29.85,North,0,0.0,0.0,89,0.00,,,0.00,WUHU216HW,2013-03-15 12:30:00,
2013-03-15 05:35:00,50.2,47.1,29.85,North,0,0.0,0.0,89,0.00,,,0.00,WUHU216HW,2013-03-15 12:35:00,
2013-03-15 05:40:00,50.2,47.1,29.85,North,0,0.0,0.0,89,0.00,,,0.00,WUHU216HW,2013-03-15 12:40:00,
2013-03-15 05:45:00,50.2,47.1,29.85,North,0,0.0,0.0,89,0.00,,,0.00,WUHU216HW,2013-03-15 12:45:00,
2013-03-15 05:50:00,50.2,47.1,29.85,North,0,0.0,0.0,89,0.00,,,0.00,WUHU216HW,2013-03-15 12:50:00,
2013-03-15 05:55:00,50.2,47.1,29.85,North,0,0.0,0.0,89,0.00,,,0.00,WUHU216HW,2013-03-15 12:55:00,
2013-03-15 06:00:00,50.2,47.1,29.85,North,0,0.0,0.0,89,0.00,,,0.00,WUHU216HW,2013-03-15 13:00:00,
2013-03-15 06:05:00,50.0,46.9,29.85,North,0,0.0,0.0,89,0.00,,,0.00,WUHU216HW,2013-03-15 13:05:00,
2013-03-15 06:10:00,50.2,47.1,29.85,North,0,0.0,0.0,89,0.00,,,0.00,WUHU216HW,2013-03-15 13:10:00,
2013-03-15 06:15:00,50.0,46.9,29.85,North,0,0.0,0.0,89,0.00,,,0.00,WUHU216HW,2013-03-15 13:15:00,
2013-03-15 06:20:00,50.0,46.9,29.85,North,0,0.0,0.0,89,0.00,,,0.00,WUHU216HW,2013-03-15 13:20:00,
2013-03-15 06:25:00,50.0,46.9,29.86,North,0,0.0,0.0,89,0.00,,,0.00,WUHU216HW,2013-03-15 13:25:00,
2013-03-15 06:30:00,50.0,46.9,29.86,North,0,0.0,0.0,89,0.00,,,0.00,WUHU216HW,2013-03-15 13:30:00,
2013-03-15 06:35:00,50.0,47.2,29.86,North,0,0.0,0.0,90,0.00,,,0.00,WUHU216HW,2013-03-15 13:35:00,
2013-03-15 06:40:00,50.0,47.2,29.86,North,0,0.0,0.0,90,0.00,,,0.00,WUHU216HW,2013-03-15 13:40:00,
2013-03-15 06:45:00,50.0,47.2,29.86,North,0,0.0,0.0,90,0.00,,,0.00,WUHU216HW,2013-03-15 13:45:00,
2013-03-15 06:50:00,50.0,47.2,29.86,North,0,0.0,0.0,90,0.00,,,0.00,WUHU216HW,2013-03-15 13:50:00,
2013-03-15 06:55:00,50.0,47.2,29.86,North,0,0.0,0.0,90,0.00,,,0.00,WUHU216HW,2013-03-15 13:55:00,
2013-03-15 07:00:00,50.0,47.2,29.86,North,0,0.0,0.0,90,0.00,,,0.00,WUHU216HW,2013-03-15 14:00:00,
2013-03-15 07:05:00,50.0,47.2,29.86,North,0,0.0,0.0,90,0.00,,,0.00,WUHU216HW,2013-03-15 14:05:00,
2013-03-15 07:10:00,50.0,47.2,29.86,North,0,0.0,0.0,90,0.00,,,0.00,WUHU216HW,2013-03-15 14:10:00,
2013-03-15 07:15:00,49.9,47.0,29.86,North,0,0.0,0.0,90,0.00,,,0.00,WUHU216HW,2013-03-15 14:15:00,
2013-03-15 07:20:00,49.9,47.0,29.86,North,0,0.0,0.0,90,0.00,,,0.00,WUHU216HW,2013-03-15 14:20:00,
2013-03-15 07:25:00,49.9,47.0,29.86,North,0,0.0,0.0,90,0.00,,,0.00,WUHU216HW,2013-03-15 14:25:00,
2013-03-15 07:30:00,49.9,47.3,29.86,North,0,0.0,0.0,91,0.00,,,0.00,WUHU216HW,2013-03-15 14:30:00,
2013-03-15 07:35:00,49.9,47.0,29.86,North,0,0.0,0.0,90,0.00,,,0.00,WUHU216HW,2013-03-15 14:35:00,
2013-03-15 07:40:00,49.9,47.0,29.86,North,0,0.0,0.0,90,0.00,,,0.00,WUHU216HW,2013-03-15 14:40:00,
2013-03-15 07:45:00,50.0,47.2,29.86,North,0,0.0,0.0,90,0.00,,,0.00,WUHU216HW,2013-03-15 14:45:00,
2013-03-15 07:50:00,50.0,47.2,29.86,North,0,0.0,0.0,90,0.00,,,0.00,WUHU216HW,2013-03-15 14:50:00,
2013-03-15 07:55:00,50.0,47.2,29.87,North,0,0.0,0.0,90,0.00,,,0.00,WUHU216HW,2013-03-15 14:55:00,
2013-03-15 08:00:00,50.0,47.2,29.87,North,0,0.0,0.0,90,0.00,,,0.00,WUHU216HW,2013-03-15 15:00:00,
2013-03-15 08:05:00,50.0,47.2,29.87,North,0,0.0,0.0,90,0.00,,,0.00,WUHU216HW,2013-03-15 15:05:00,
2013-03-15 08:10:00,50.0,47.2,29.87,North,0,0.0,0.0,90,0.00,,,0.00,WUHU216HW,2013-03-15 15:10:00,
2013-03-15 08:15:00,50.0,47.2,29.87,North,0,0.0,0.0,90,0.00,,,0.00,WUHU216HW,2013-03-15 15:15:00,
2013-03-15 08:20:00,50.2,47.3,29.87,North,0,0.0,0.0,90,0.00,,,0.00,WUHU216HW,2013-03-15 15:20:00,
2013-03-15 08:25:00,50.2,47.3,29.87,North,0,0.0,0.0,90,0.00,,,0.00,WUHU216HW,2013-03-15 15:25:00,
2013-03-15 08:30:00,50.4,47.5,29.87,North,0,0.0,0.0,90,0.00,,,0.00,WUHU216HW,2013-03-15 15:30:00,
2013-03-15 08:35:00,50.4,47.5,29.87,North,0,0.0,0.0,90,0.00,,,0.00,WUHU216HW,2013-03-15 15:35:00,
2013-03-15 08:40:00,50.4,47.5,29.87,North,0,0.0,0.0,90,0.00,,,0.00,WUHU216HW,2013-03-15 15:40:00,
2013-03-15 08:45:00,50.6,47.4,29.88,North,0,0.0,0.0,89,0.00,,,0.00,WUHU216HW,2013-03-15 15:45:00,
2013-03-15 08:50:00,50.8,47.6,29.88,North,0,0.0,0.0,89,0.00,,,0.00,WUHU216HW,2013-03-15 15:50:00,
2013-03-15 08:55:00,50.8,47.6,29.88,North,0,0.0,0.0,89,0.00,,,0.00,WUHU216HW,2013-03-15 15:55:00,
2013-03-15 09:00:00,50.9,48.1,29.88,North,0,0.0,0.0,90,0.00,,,0.00,WUHU216HW,2013-03-15 16:00:00,
2013-03-15 09:05:00,51.1,48.0,29.88,North,0,0.0,0.0,89,0.00,,,0.00,WUHU216HW,2013-03-15 16:05:00,
2013-03-15 09:10:00,51.1,48.0,29.89,North,0,0.0,0.0,89,0.00,,,0.00,WUHU216HW,2013-03-15 16:10:00,
2013-03-15 09:15:00,51.3,48.2,29.89,North,0,0.0,0.0,89,0.00,,,0.00,WUHU216HW,2013-03-15 16:15:00,
2013-03-15 09:20:00,51.5,48.3,29.89,North,0,0.0,0.0,89,0.00,,,0.00,WUHU216HW,2013-03-15 16:20:00,
2013-03-15 09:25:00,51.7,48.5,29.89,North,0,0.0,0.0,89,0.00,,,0.00,WUHU216HW,2013-03-15 16:25:00,
2013-03-15 09:30:00,51.8,48.7,29.89,North,0,0.0,0.0,89,0.00,,,0.00,WUHU216HW,2013-03-15 16:30:00,
2013-03-15 09:35:00,52.0,48.9,29.89,North,0,0.0,0.0,89,0.00,,,0.00,WUHU216HW,2013-03-15 16:35:00,
2013-03-15 09:40:00,52.2,48.7,29.89,North,0,0.0,0.0,88,0.00,,,0.00,WUHU216HW,2013-03-15 16:40:00,
2013-03-15 09:45:00,52.2,48.7,29.89,North,0,0.0,0.0,88,0.00,,,0.00,WUHU216HW,2013-03-15 16:45:00,
2013-03-15 09:50:00,52.6,49.1,29.89,North,0,0.0,0.0,88,0.00,,,0.00,WUHU216HW,2013-03-15 16:50:00,
2013-03-15 09:55:00,52.6,49.1,29.89,North,0,0.0,0.0,88,0.00,,,0.00,WUHU216HW,2013-03-15 16:55:00,
2013-03-15 10:00:00,52.9,49.2,29.90,North,0,0.0,0.0,87,0.00,,,0.00,WUHU216HW,2013-03-15 17:00:00,
2013-03-15 10:05:00,53.1,49.3,29.89,North,0,0.0,0.0,87,0.00,,,0.00,WUHU216HW,2013-03-15 17:05:00,
2013-03-15 10:10:00,53.5,49.7,29.89,North,0,0.0,0.0,87,0.00,,,0.00,WUHU216HW,2013-03-15 17:10:00,
2013-03-15 10:15:00,53.6,49.9,29.89,North,0,0.0,0.0,87,0.00,,,0.00,WUHU216HW,2013-03-15 17:15:00,
2013-03-15 10:20:00,53.8,49.7,29.89,North,0,0.0,0.0,86,0.00,,,0.00,WUHU216HW,2013-03-15 17:20:00,
2013-03-15 10:25:00,54.0,49.9,29.89,North,0,0.0,0.0,86,0.00,,,0.00,WUHU216HW,2013-03-15 17:25:00,
2013-03-15 10:30:00,54.2,49.8,29.89,North,0,0.0,0.0,85,0.00,,,0.00,WUHU216HW,2013-03-15 17:30:00,
2013-03-15 10:35:00,54.4,50.0,29.89,North,0,0.0,0.0,85,0.00,,,0.00,WUHU216HW,2013-03-15 17:35:00,
2013-03-15 10:40:00,54.4,49.6,29.89,North,0,0.0,0.0,84,0.00,,,0.00,WUHU216HW,2013-03-15 17:40:00,
2013-03-15 10:45:00,54.5,49.4,29.89,North,0,0.0,0.0,83,0.00,,,0.00,WUHU216HW,2013-03-15 17:45:00,
2013-03-15 10:50:00,54.5,49.4,29.90,North,0,0.0,0.0,83,0.00,,,0.00,WUHU216HW,2013-03-15 17:50:00,
2013-03-15 10:55:00,54.7,49.6,29.89,North,0,0.0,0.0,83,0.00,,,0.00,WUHU216HW,2013-03-15 17:55:00,
2013-03-15 11:00:00,54.9,49.8,29.90,North,0,0.0,0.0,83,0.00,,,0.00,WUHU216HW,2013-03-15 18:00:00,
2013-03-15 11:05:00,55.1,49.7,29.90,North,0,0.0,0.0,82,0.00,,,0.00,WUHU216HW,2013-03-15 18:05:00,
2013-03-15 11:10:00,55.3,49.8,29.90,North,0,0.0,0.0,82,0.00,,,0.00,WUHU216HW,2013-03-15 18:10:00,
2013-03-15 11:15:00,55.4,50.0,29.90,North,0,0.0,0.0,82,0.00,,,0.00,WUHU216HW,2013-03-15 18:15:00,
2013-03-15 11:20:00,55.6,50.1,29.90,North,0,0.0,0.0,82,0.00,,,0.00,WUHU216HW,2013-03-15 18:20:00,
2013-03-15 11:25:00,55.8,50.3,29.90,North,0,0.0,0.0,82,0.00,,,0.00,WUHU216HW,2013-03-15 18:25:00,
2013-03-15 11:30:00,55.8,50.3,29.90,North,0,0.0,0.0,82,0.00,,,0.00,WUHU216HW,2013-03-15 18:30:00,
2013-03-15 11:35:00,55.8,50.3,29.90,North,0,0.0,0.0,82,0.00,,,0.00,WUHU216HW,2013-03-15 18:35:00,
2013-03-15 11:40:00,56.0,50.5,29.89,North,0,0.0,0.0,82,0.00,,,0.00,WUHU216HW,2013-03-15 18:40:00,
2013-03-15 11:45:00,56.3,50.9,29.89,North,0,0.0,0.0,82,0.00,,,0.00,WUHU216HW,2013-03-15 18:45:00,
2013-03-15 11:50:00,56.7,51.6,29.89,North,0,0.0,0.0,83,0.00,,,0.00,WUHU216HW,2013-03-15 18:50:00,
2013-03-15 11:55:00,57.1,51.6,29.89,North,0,0.0,0.0,82,0.00,,,0.00,WUHU216HW,2013-03-15 18:55:00,
2013-03-15 12:00:00,57.8,52.0,29.89,North,0,0.0,0.0,81,0.00,,,0.00,WUHU216HW,2013-03-15 19:00:00,
2013-03-15 12:05:00,58.0,51.8,29.89,North,0,0.0,0.0,80,0.00,,,0.00,WUHU216HW,2013-03-15 19:05:00,
2013-03-15 12:10:00,58.3,52.2,29.89,North,0,0.0,0.0,80,0.00,,,0.00,WUHU216HW,2013-03-15 19:10:00,
2013-03-15 12:15:00,58.3,52.6,29.89,North,0,0.0,0.0,81,0.00,,,0.00,WUHU216HW,2013-03-15 19:15:00,
2013-03-15 12:20:00,58.5,52.8,29.89,North,0,0.0,0.0,81,0.00,,,0.00,WUHU216HW,2013-03-15 19:20:00,
2013-03-15 12:25:00,58.9,52.4,29.89,North,0,0.0,0.0,79,0.00,,,0.00,WUHU216HW,2013-03-15 19:25:00,
2013-03-15 12:30:00,59.0,52.6,29.89,North,0,0.0,0.0,79,0.00,,,0.00,WUHU216HW,2013-03-15 19:30:00,
2013-03-15 12:35:00,59.4,52.9,29.89,North,0,0.0,0.0,79,0.00,,,0.00,WUHU216HW,2013-03-15 19:35:00,
2013-03-15 12:40:00,59.4,52.9,29.89,North,0,0.0,0.0,79,0.00,,,0.00,WUHU216HW,2013-03-15 19:40:00,
2013-03-15 12:45:00,59.4,52.9,29.89,North,0,0.0,0.0,79,0.00,,,0.00,WUHU216HW,2013-03-15 19:45:00,
2013-03-15 12:50:00,59.4,52.9,29.89,North,0,0.0,0.0,79,0.00,,,0.00,WUHU216HW,2013-03-15 19:50:00,
2013-03-15 12:55:00,59.4,52.6,29.89,North,0,0.0,0.0,78,0.00,,,0.00,WUHU216HW,2013-03-15 19:55:00,
2013-03-15 13:00:00,59.4,52.9,29.89,North,0,0.0,0.0,79,0.00,,,0.00,WUHU216HW,2013-03-15 20:00:00,
2013-03-15 13:05:00,59.4,52.6,29.89,North,0,0.0,0.0,78,0.00,,,0.00,WUHU216HW,2013-03-15 20:05:00,
2013-03-15 13:10:00,59.8,52.6,29.89,North,0,0.0,0.0,77,0.00,,,0.00,WUHU216HW,2013-03-15 20:10:00,
2013-03-15 13:15:00,59.9,53.1,29.89,North,0,0.0,0.0,78,0.00,,,0.00,WUHU216HW,2013-03-15 20:15:00,
2013-03-15 13:20:00,60.3,53.1,29.89,North,0,0.0,0.0,77,0.00,,,0.00,WUHU216HW,2013-03-15 20:20:00,
2013-03-15 13:25:00,60.8,53.6,29.89,North,0,0.0,0.0,77,0.00,,,0.00,WUHU216HW,2013-03-15 20:25:00,
2013-03-15 13:30:00,61.4,53.7,29.89,North,0,0.0,0.0,76,0.00,,,0.00,WUHU216HW,2013-03-15 20:30:00,
2013-03-15 13:35:00,61.4,53.7,29.89,North,0,0.0,0.0,76,0.00,,,0.00,WUHU216HW,2013-03-15 20:35:00,
2013-03-15 13:40:00,61.6,53.6,29.89,North,0,0.0,0.0,75,0.00,,,0.00,WUHU216HW,2013-03-15 20:40:00,
2013-03-15 13:45:00,61.9,53.6,29.89,North,0,0.0,0.0,74,0.00,,,0.00,WUHU216HW,2013-03-15 20:45:00,
2013-03-15 13:50:00,61.9,53.2,29.89,North,0,0.0,0.0,73,0.00,,,0.00,WUHU216HW,2013-03-15 20:50:00,
2013-03-15 13:55:00,61.6,53.2,29.89,North,0,0.0,0.0,74,0.00,,,0.00,WUHU216HW,2013-03-15 20:55:00,
2013-03-15 14:00:00,61.6,52.8,29.89,North,0,0.0,0.0,73,0.00,,,0.00,WUHU216HW,2013-03-15 21:00:00,
2013-03-15 14:05:00,61.6,53.2,29.88,North,0,0.0,0.0,74,0.00,,,0.00,WUHU216HW,2013-03-15 21:05:00,
2013-03-15 14:10:00,61.6,52.8,29.88,North,0,0.0,0.0,73,0.00,,,0.00,WUHU216HW,2013-03-15 21:10:00,
2013-03-15 14:15:00,61.6,52.8,29.87,North,0,0.0,0.0,73,0.00,,,0.00,WUHU216HW,2013-03-15 21:15:00,
2013-03-15 14:20:00,61.6,53.2,29.87,North,0,0.0,0.0,74,0.00,,,0.00,WUHU216HW,2013-03-15 21:20:00,
2013-03-15 14:25:00,61.9,53.2,29.87,North,0,0.0,0.0,73,0.00,,,0.00,WUHU216HW,2013-03-15 21:25:00,
2013-03-15 14:30:00,61.7,52.7,29.87,North,0,0.0,0.0,72,0.00,,,0.00,WUHU216HW,2013-03-15 21:30:00,
2013-03-15 14:35:00,61.9,53.2,29.87,North,0,0.0,0.0,73,0.00,,,0.00,WUHU216HW,2013-03-15 21:35:00,
2013-03-15 14:40:00,62.3,53.5,29.87,North,0,0.0,0.0,73,0.00,,,0.00,WUHU216HW,2013-03-15 21:40:00,
2013-03-15 14:45:00,62.3,53.5,29.87,North,0,0.0,0.0,73,0.00,,,0.00,WUHU216HW,2013-03-15 21:45:00,
2013-03-15 14:50:00,62.3,53.1,29.87,North,0,0.0,0.0,72,0.00,,,0.00,WUHU216HW,2013-03-15 21:50:00,
2013-03-15 14:55:00,62.6,53.5,29.87,North,0,0.0,0.0,72,0.00,,,0.00,WUHU216HW,2013-03-15 21:55:00,
2013-03-15 15:00:00,62.6,53.8,29.86,North,0,0.0,0.0,73,0.00,,,0.00,WUHU216HW,2013-03-15 22:00:00,
2013-03-15 15:05:00,62.8,53.6,29.86,North,0,0.0,0.0,72,0.00,,,0.00,WUHU216HW,2013-03-15 22:05:00,
2013-03-15 15:10:00,62.6,53.1,29.86,North,0,0.0,0.0,71,0.00,,,0.00,WUHU216HW,2013-03-15 22:10:00,
2013-03-15 15:15:00,62.3,53.1,29.86,North,0,0.0,0.0,72,0.00,,,0.00,WUHU216HW,2013-03-15 22:15:00,
2013-03-15 15:20:00,62.3,52.7,29.86,North,0,0.0,0.0,71,0.00,,,0.00,WUHU216HW,2013-03-15 22:20:00,
2013-03-15 15:25:00,61.9,51.7,29.86,North,0,0.0,0.0,69,0.00,,,0.00,WUHU216HW,2013-03-15 22:25:00,
2013-03-15 15:30:00,61.6,51.4,29.86,North,0,0.0,0.0,69,0.00,,,0.00,WUHU216HW,2013-03-15 22:30:00,
2013-03-15 15:35:00,61.2,51.5,29.86,North,0,0.0,0.0,70,0.00,,,0.00,WUHU216HW,2013-03-15 22:35:00,
2013-03-15 15:40:00,61.2,51.9,29.86,North,0,0.0,0.0,71,0.00,,,0.00,WUHU216HW,2013-03-15 22:40:00,
2013-03-15 15:45:00,60.8,51.1,29.86,North,0,0.0,0.0,70,0.00,,,0.00,WUHU216HW,2013-03-15 22:45:00,
2013-03-15 15:50:00,60.7,51.3,29.85,North,0,0.0,0.0,71,0.00,,,0.00,WUHU216HW,2013-03-15 22:50:00,
2013-03-15 15:55:00,60.5,51.1,29.86,North,0,0.0,0.0,71,0.00,,,0.00,WUHU216HW,2013-03-15 22:55:00,
2013-03-15 16:00:00,60.5,51.1,29.85,North,0,0.0,0.0,71,0.00,,,0.00,WUHU216HW,2013-03-15 23:00:00,
2013-03-15 16:05:00,60.5,51.5,29.85,North,0,0.0,0.0,72,0.00,,,0.00,WUHU216HW,2013-03-15 23:05:00,
2013-03-15 16:10:00,60.5,51.1,29.85,North,0,0.0,0.0,71,0.00,,,0.00,WUHU216HW,2013-03-15 23:10:00,
2013-03-15 16:15:00,60.7,51.3,29.85,North,0,0.0,0.0,71,0.00,,,0.00,WUHU216HW,2013-03-15 23:15:00,
2013-03-15 16:20:00,60.8,51.5,29.85,North,0,0.0,0.0,71,0.00,,,0.00,WUHU216HW,2013-03-15 23:20:00,
2013-03-15 16:25:00,60.8,51.5,29.85,North,0,0.0,0.0,71,0.00,,,0.00,WUHU216HW,2013-03-15 23:25:00,
2013-03-15 16:30:00,60.7,51.3,29.85,North,0,0.0,0.0,71,0.00,,,0.00,WUHU216HW,2013-03-15 23:30:00,
2013-03-15 16:35:00,60.8,51.5,29.84,North,0,0.0,0.0,71,0.00,,,0.00,WUHU216HW,2013-03-15 23:35:00,
2013-03-15 16:40:00,60.8,51.5,29.84,North,0,0.0,0.0,71,0.00,,,0.00,WUHU216HW,2013-03-15 23:40:00,
2013-03-15 16:45:00,60.7,51.3,29.84,North,0,0.0,0.0,71,0.00,,,0.00,WUHU216HW,2013-03-15 23:45:00,
2013-03-15 16:50:00,60.8,51.5,29.84,North,0,0.0,0.0,71,0.00,,,0.00,WUHU216HW,2013-03-15 23:50:00,
2013-03-15 16:55:00,61.0,51.7,29.84,North,0,0.0,0.0,71,0.00,,,0.00,WUHU216HW,2013-03-15 23:55:00,
2013-03-15 17:00:00,60.8,51.5,29.84,North,0,0.0,0.0,71,0.00,,,0.00,WUHU216HW,2013-03-16 00:00:00,
2013-03-15 17:05:00,60.8,51.5,29.84,North,0,0.0,0.0,71,0.00,,,0.00,WUHU216HW,2013-03-16 00:05:00,
2013-03-15 17:10:00,60.7,51.3,29.84,North,0,0.0,0.0,71,0.00,,,0.00,WUHU216HW,2013-03-16 00:10:00,
2013-03-15 17:15:00,60.7,50.9,29.84,North,0,0.0,0.0,70,0.00,,,0.00,WUHU216HW,2013-03-16 00:15:00,
2013-03-15 17:20:00,60.5,50.8,29.84,North,0,0.0,0.0,70,0.00,,,0.00,WUHU216HW,2013-03-16 00:20:00,
2013-03-15 17:25:00,60.1,50.4,29.83,North,0,0.0,0.0,70,0.00,,,0.00,WUHU216HW,2013-03-16 00:25:00,
2013-03-15 17:30:00,60.1,50.8,29.83,North,0,0.0,0.0,71,0.00,,,0.00,WUHU216HW,2013-03-16 00:30:00,
2013-03-15 17:35:00,59.9,50.6,29.83,North,0,0.0,0.0,71,0.00,,,0.00,WUHU216HW,2013-03-16 00:35:00,
2013-03-15 17:40:00,59.9,50.9,29.83,North,0,0.0,0.0,72,0.00,,,0.00,WUHU216HW,2013-03-16 00:40:00,
2013-03-15 17:45:00,59.8,50.4,29.83,North,0,0.0,0.0,71,0.00,,,0.00,WUHU216HW,2013-03-16 00:45:00,
2013-03-15 17:50:00,59.8,50.4,29.83,North,0,0.0,0.0,71,0.00,,,0.00,WUHU216HW,2013-03-16 00:50:00,
2013-03-15 17:55:00,59.8,50.8,29.83,North,0,0.0,0.0,72,0.00,,,0.00,WUHU216HW,2013-03-16 00:55:00,
2013-03-15 18:00:00,59.6,50.2,29.83,North,0,0.0,0.0,71,0.00,,,0.00,WUHU216HW,2013-03-16 01:00:00,
2013-03-15 18:05:00,59.2,50.2,29.83,North,0,0.0,0.0,72,0.00,,,0.00,WUHU216HW,2013-03-16 01:05:00,
2013-03-15 18:10:00,59.0,50.0,29.83,North,0,0.0,0.0,72,0.00,,,0.00,WUHU216HW,2013-03-16 01:10:00,
2013-03-15 18:15:00,58.9,49.9,29.83,North,0,0.0,0.0,72,0.00,,,0.00,WUHU216HW,2013-03-16 01:15:00,
2013-03-15 18:20:00,58.5,49.5,29.83,North,0,0.0,0.0,72,0.00,,,0.00,WUHU216HW,2013-03-16 01:20:00,
2013-03-15 18:25:00,58.3,49.7,29.83,North,0,0.0,0.0,73,0.00,,,0.00,WUHU216HW,2013-03-16 01:25:00,
2013-03-15 18:30:00,58.3,49.7,29.83,North,0,0.0,0.0,73,0.00,,,0.00,WUHU216HW,2013-03-16 01:30:00,
2013-03-15 18:35:00,58.0,49.3,29.83,North,0,0.0,0.0,73,0.00,,,0.00,WUHU216HW,2013-03-16 01:35:00,
2013-03-15 18:40:00,58.0,49.3,29.83,North,0,0.0,0.0,73,0.00,,,0.00,WUHU216HW,2013-03-16 01:40:00,
2013-03-15 18:45:00,57.8,49.5,29.83,North,0,0.0,0.0,74,0.00,,,0.00,WUHU216HW,2013-03-16 01:45:00,
2013-03-15 18:50:00,57.6,49.3,29.83,North,0,0.0,0.0,74,0.00,,,0.00,WUHU216HW,2013-03-16 01:50:00,
2013-03-15 18:55:00,57.4,49.1,29.83,North,0,0.0,0.0,74,0.00,,,0.00,WUHU216HW,2013-03-16 01:55:00,
2013-03-15 19:00:00,57.2,49.3,29.83,North,0,0.0,0.0,75,0.00,,,0.00,WUHU216HW,2013-03-16 02:00:00,
2013-03-15 19:05:00,56.9,49.0,29.83,North,0,0.0,0.0,75,0.00,,,0.00,WUHU216HW,2013-03-16 02:05:00,
2013-03-15 19:10:00,56.7,48.8,29.83,North,0,0.0,0.0,75,0.00,,,0.00,WUHU216HW,2013-03-16 02:10:00,
2013-03-15 19:15:00,56.5,49.0,29.83,North,0,0.0,0.0,76,0.00,,,0.00,WUHU216HW,2013-03-16 02:15:00,
2013-03-15 19:20:00,56.3,48.8,29.83,North,0,0.0,0.0,76,0.00,,,0.00,WUHU216HW,2013-03-16 02:20:00,
2013-03-15 19:25:00,56.2,48.6,29.83,North,0,0.0,0.0,76,0.00,,,0.00,WUHU216HW,2013-03-16 02:25:00,
2013-03-15 19:30:00,55.8,48.3,29.83,North,0,0.0,0.0,76,0.00,,,0.00,WUHU216HW,2013-03-16 02:30:00,
2013-03-15 19:35:00,55.8,48.6,29.83,North,0,0.0,0.0,77,0.00,,,0.00,WUHU216HW,2013-03-16 02:35:00,
2013-03-15 19:40:00,55.6,48.5,29.83,North,0,0.0,0.0,77,0.00,,,0.00,WUHU216HW,2013-03-16 02:40:00,
2013-03-15 19:45:00,55.4,48.3,29.83,North,0,0.0,0.0,77,0.00,,,0.00,WUHU216HW,2013-03-16 02:45:00,
2013-03-15 19:50:00,55.3,48.5,29.83,North,0,0.0,0.0,78,0.00,,,0.00,WUHU216HW,2013-03-16 02:50:00,
2013-03-15 19:55:00,55.1,48.3,29.83,North,0,0.0,0.0,78,0.00,,,0.00,WUHU216HW,2013-03-16 02:55:00,
2013-03-15 20:00:00,55.1,48.3,29.83,North,0,0.0,0.0,78,0.00,,,0.00,WUHU216HW,2013-03-16 03:00:00,
2013-03-15 20:05:00,54.9,48.2,29.83,North,0,0.0,0.0,78,0.00,,,0.00,WUHU216HW,2013-03-16 03:05:00,
2013-03-15 20:10:00,54.7,48.0,29.83,North,0,0.0,0.0,78,0.00,,,0.00,WUHU216HW,2013-03-16 03:10:00,
2013-03-15 20:15:00,54.7,48.3,29.83,North,0,0.0,0.0,79,0.00,,,0.00,WUHU216HW,2013-03-16 03:15:00,
2013-03-15 20:20:00,54.5,48.2,29.83,North,0,0.0,0.0,79,0.00,,,0.00,WUHU216HW,2013-03-16 03:20:00,
2013-03-15 20:25:00,54.4,47.6,29.83,North,0,0.0,0.0,78,0.00,,,0.00,WUHU216HW,2013-03-16 03:25:00,
2013-03-15 20:30:00,54.2,47.5,29.83,North,0,0.0,0.0,78,0.00,,,0.00,WUHU216HW,2013-03-16 03:30:00,
2013-03-15 20:35:00,54.0,47.4,29.83,North,0,0.0,0.0,78,0.00,,,0.00,WUHU216HW,2013-03-16 03:35:00,
2013-03-15 20:40:00,53.6,47.0,29.83,North,0,0.0,0.0,78,0.00,,,0.00,WUHU216HW,2013-03-16 03:40:00,
2013-03-15 20:45:00,53.6,47.0,29.83,North,0,0.0,0.0,78,0.00,,,0.00,WUHU216HW,2013-03-16 03:45:00,
2013-03-15 20:50:00,53.5,46.8,29.83,North,0,0.0,0.0,78,0.00,,,0.00,WUHU216HW,2013-03-16 03:50:00,
2013-03-15 20:55:00,53.3,47.0,29.83,North,0,0.0,0.0,79,0.00,,,0.00,WUHU216HW,2013-03-16 03:55:00,
2013-03-15 21:00:00,53.3,47.0,29.83,North,0,0.0,0.0,79,0.00,,,0.00,WUHU216HW,2013-03-16 04:00:00,
2013-03-15 21:05:00,53.1,46.8,29.83,North,0,0.0,0.0,79,0.00,,,0.00,WUHU216HW,2013-03-16 04:05:00,
2013-03-15 21:10:00,53.1,46.8,29.83,North,0,0.0,0.0,79,0.00,,,0.00,WUHU216HW,2013-03-16 04:10:00,
2013-03-15 21:15:00,52.9,47.0,29.83,North,0,0.0,0.0,80,0.00,,,0.00,WUHU216HW,2013-03-16 04:15:00,
2013-03-15 21:20:00,52.9,47.0,29.83,North,0,0.0,0.0,80,0.00,,,0.00,WUHU216HW,2013-03-16 04:20:00,
2013-03-15 21:25:00,52.6,46.6,29.84,North,0,0.0,0.0,80,0.00,,,0.00,WUHU216HW,2013-03-16 04:25:00,
2013-03-15 21:30:00,52.6,46.6,29.84,North,0,0.0,0.0,80,0.00,,,0.00,WUHU216HW,2013-03-16 04:30:00,
2013-03-15 21:35:00,52.4,46.4,29.84,North,0,0.0,0.0,80,0.00,,,0.00,WUHU216HW,2013-03-16 04:35:00,
2013-03-15 21:40:00,52.2,46.3,29.84,North,0,0.0,0.0,80,0.00,,,0.00,WUHU216HW,2013-03-16 04:40:00,
2013-03-15 21:45:00,52.0,46.4,29.84,North,0,0.0,0.0,81,0.00,,,0.00,WUHU216HW,2013-03-16 04:45:00,
2013-03-15 21:50:00,51.8,46.2,29.84,North,0,0.0,0.0,81,0.00,,,0.00,WUHU216HW,2013-03-16 04:50:00,
2013-03-15 21:55:00,51.8,46.2,29.84,North,0,0.0,0.0,81,0.00,,,0.00,WUHU216HW,2013-03-16 04:55:00,
2013-03-15 22:00:00,51.7,46.4,29.84,North,0,0.0,0.0,82,0.00,,,0.00,WUHU216HW,2013-03-16 05:00:00,
2013-03-15 22:05:00,51.5,46.2,29.84,North,0,0.0,0.0,82,0.00,,,0.00,WUHU216HW,2013-03-16 05:05:00,
2013-03-15 22:10:00,51.5,46.2,29.84,North,0,0.0,0.0,82,0.00,,,0.00,WUHU216HW,2013-03-16 05:10:00,
2013-03-15 22:15:00,51.5,46.2,29.84,North,0,0.0,0.0,82,0.00,,,0.00,WUHU216HW,2013-03-16 05:15:00,
2013-03-15 22:20:00,51.5,46.2,29.84,North,0,0.0,0.0,82,0.00,,,0.00,WUHU216HW,2013-03-16 05:20:00,
2013-03-15 22:25:00,51.3,46.0,29.84,North,0,0.0,0.0,82,0.00,,,0.00,WUHU216HW,2013-03-16 05:25:00,
2013-03-15 22:30:00,51.3,46.0,29.84,North,0,0.0,0.0,82,0.00,,,0.00,WUHU216HW,2013-03-16 05:30:00,
2013-03-15 22:35:00,51.1,46.1,29.84,North,0,0.0,0.0,83,0.00,,,0.00,WUHU216HW,2013-03-16 05:35:00,
2013-03-15 22:40:00,51.1,46.1,29.84,North,0,0.0,0.0,83,0.00,,,0.00,WUHU216HW,2013-03-16 05:40:00,
2013-03-15 22:45:00,50.9,45.9,29.84,North,0,0.0,0.0,83,0.00,,,0.00,WUHU216HW,2013-03-16 05:45:00,
2013-03-15 22:50:00,50.9,45.9,29.84,North,0,0.0,0.0,83,0.00,,,0.00,WUHU216HW,2013-03-16 05:50:00,
2013-03-15 22:55:00,50.9,45.9,29.84,North,0,0.0,0.0,83,0.00,,,0.00,WUHU216HW,2013-03-16 05:55:00,
2013-03-15 23:00:00,50.8,45.7,29.84,North,0,0.0,0.0,83,0.00,,,0.00,WUHU216HW,2013-03-16 06:00:00,
2013-03-15 23:05:00,50.8,46.1,29.83,North,0,0.0,0.0,84,0.00,,,0.00,WUHU216HW,2013-03-16 06:05:00,
2013-03-15 23:10:00,50.8,46.1,29.84,North,0,0.0,0.0,84,0.00,,,0.00,WUHU216HW,2013-03-16 06:10:00,
2013-03-15 23:15:00,50.8,46.1,29.83,North,0,0.0,0.0,84,0.00,,,0.00,WUHU216HW,2013-03-16 06:15:00,
2013-03-15 23:20:00,50.6,45.9,29.83,North,0,0.0,0.0,84,0.00,,,0.00,WUHU216HW,2013-03-16 06:20:00,
2013-03-15 23:25:00,50.6,45.9,29.83,North,0,0.0,0.0,84,0.00,,,0.00,WUHU216HW,2013-03-16 06:25:00,
2013-03-15 23:30:00,50.4,45.7,29.83,North,0,0.0,0.0,84,0.00,,,0.00,WUHU216HW,2013-03-16 06:30:00,
2013-03-15 23:35:00,50.4,46.0,29.83,North,0,0.0,0.0,85,0.00,,,0.00,WUHU216HW,2013-03-16 06:35:00,
2013-03-15 23:40:00,50.2,45.8,29.83,North,0,0.0,0.0,85,0.00,,,0.00,WUHU216HW,2013-03-16 06:40:00,
2013-03-15 23:45:00,50.2,45.8,29.83,North,0,0.0,0.0,85,0.00,,,0.00,WUHU216HW,2013-03-16 06:45:00,
2013-03-15 23:50:00,50.0,45.6,29.83,North,0,0.0,0.0,85,0.00,,,0.00,WUHU216HW,2013-03-16 06:50:00,
2013-03-15 23:55:00,50.0,45.6,29.83,North,0,0.0,0.0,85,0.00,,,0.00,WUHU216HW,2013-03-16 06:55:00,